DW8500 Weather Reports


Display with metric or nautical units.
time (UTC)temp
F
wind
direction
speed
MPH
gust
MPH
rain 1hr
in
rain 24hr
in
rain mn
in
humidity
%
barometer
mb
20260504175311 70 244 5.0 14.0 0.00 0.00 0.00 17 1006.7
20260504174752 70 240 4.0 14.0 0.00 0.00 0.00 17 1006.9
20260504174250 70 244 4.0 17.0 0.00 0.00 0.00 17 1006.8
20260504173748 70 278 5.0 17.0 0.00 0.00 0.00 18 1006.9
20260504173246 69 235 3.0 13.0 0.00 0.00 0.00 18 1006.9
20260504172747 69 231 5.0 12.0 0.00 0.00 0.00 18 1007.0
20260504172320 69 102 5.0 12.0 0.00 0.00 0.00 19 1007.0
20260504171758 69 196 5.0 12.0 0.00 0.00 0.00 20 1007.2
20260504171254 69 224 4.0 10.0 0.00 0.00 0.00 19 1007.4
20260504170755 69 286 4.0 17.0 0.00 0.00 0.00 21 1007.2
20260504170253 68 240 6.0 17.0 0.00 0.00 0.00 20 1007.4
20260504160243 66 158 4.0 14.0 0.00 0.00 0.00 22 1007.7
20260504150742 65 226 4.0 13.0 0.00 0.00 0.00 24 1008.3
20260504150253 64 254 5.0 13.0 0.00 0.00 0.00 24 1008.3
20260504141251 61 311 2.0 10.0 0.00 0.00 0.00 29 1009.0
20260504140752 61 253 2.0 6.0 0.00 0.00 0.00 30 1009.2
20260504140249 61 302 2.0 8.0 0.00 0.00 0.00 29 1009.1
20260504130802 55 248 2.0 9.0 0.00 0.02 0.00 37 1009.4
20260504130256 54 312 2.0 7.0 0.00 0.02 0.00 37 1009.6
20260504120247 52 51 2.0 8.0 0.00 0.02 0.00 40 1009.7
20260504110304 44 184 0.0 0.0 0.00 0.02 0.00 56 1009.7
20260504100314 46 177 0.0 2.0 0.00 0.02 0.00 47 1009.7
20260504081753 45 305 1.0 4.0 0.00 0.02 0.00 46 1009.9
20260504081250 45 200 0.0 3.0 0.00 0.02 0.00 47 1009.8
20260504080807 45 274 0.0 1.0 0.00 0.02 0.00 46 1009.8
20260504080243 45 281 0.0 1.0 0.00 0.02 0.00 44 1009.8
20260504070321 45 250 0.0 1.0 0.00 0.02 0.00 42 1009.8
20260504060239 42 282 0.0 1.0 0.00 0.02 0.00 47 1009.9
20260504050748 40 238 1.0 3.0 0.00 0.02 0.00 55 1009.9
20260504050300 39 115 0.0 4.0 0.00 0.02 0.00 55 1010.0
20260504045758 39 180 0.0 4.0 0.00 0.02 0.00 54 1010.0
20260504045253 39 264 0.0 5.0 0.00 0.02 0.00 55 1010.0
20260504044753 39 247 0.0 5.0 0.00 0.02 0.00 54 1010.0
20260504044247 38 330 1.0 2.0 0.00 0.02 0.00 56 1010.1
20260504043747 37 250 0.0 1.0 0.00 0.02 0.00 58 1010.0
20260504043245 37 256 0.0 1.0 0.00 0.02 0.00 58 1010.1
20260504043009 37 245 0.0 1.0 0.00 0.02 0.00 57 1010.4
20260504042808 38 246 0.0 1.0 0.00 0.02 0.00 58 1010.0
20260504042243 38 245 1.0 1.0 0.00 0.02 0.00 57 1010.0
20260504041741 38 251 0.0 1.0 0.00 0.02 0.00 56 1010.0
20260504041254 38 244 0.0 2.0 0.00 0.02 0.00 55 1009.9
20260504040755 38 231 0.0 2.0 0.00 0.02 0.00 55 1009.8
20260504040310 37 248 0.0 1.0 0.00 0.02 0.00 56 1009.8
20260504040029 37 245 0.0 1.0 0.00 0.02 0.02 56 1010.2
20260504035810 38 250 0.0 1.0 0.00 0.02 0.02 56 1009.9
20260504035246 38 250 0.0 1.0 0.00 0.02 0.02 57 1009.9
20260504034748 38 251 0.0 1.0 0.00 0.02 0.02 54 1009.8
20260504034507 38 251 0.0 1.0 0.00 0.02 0.02 54 1010.3
20260504034306 38 251 0.0 1.0 0.00 0.02 0.02 54 1009.7
20260504033746 38 251 0.0 1.0 0.00 0.02 0.02 55 1009.8
20260504033243 39 251 0.0 1.0 0.00 0.02 0.02 53 1009.8
20260504032744 39 251 0.0 1.0 0.00 0.02 0.02 52 1009.9
20260504032256 39 251 0.0 1.0 0.00 0.02 0.02 51 1009.8
20260504031754 39 251 0.0 1.0 0.00 0.02 0.02 52 1009.8
20260504031514 39 251 0.0 1.0 0.00 0.02 0.02 52 1010.2
20260504031311 39 256 0.0 1.0 0.00 0.02 0.02 52 1009.8
20260504030830 39 108 0.0 1.0 0.00 0.02 0.02 52 1009.8
20260504030242 40 259 0.0 1.0 0.00 0.02 0.02 55 1009.9
20260504030003 39 259 0.0 1.0 0.00 0.02 0.02 54 1010.2
20260504025802 40 273 0.0 1.0 0.00 0.02 0.02 51 1009.9
20260504024752 41 296 0.0 2.0 0.00 0.02 0.02 48 1009.8
20260504024508 41 297 0.0 2.0 0.00 0.02 0.02 47 1010.2
20260504024308 41 297 0.0 2.0 0.00 0.02 0.02 47 1009.8
20260504023808 41 270 0.0 1.0 0.00 0.02 0.02 46 1009.8
20260504023246 41 258 0.0 0.0 0.00 0.02 0.02 46 1009.7
20260504022745 41 258 0.0 0.0 0.00 0.02 0.02 47 1009.6
20260504022243 41 258 0.0 0.0 0.00 0.02 0.02 48 1009.7
20260504021743 41 263 0.0 0.0 0.00 0.02 0.02 48 1009.7
20260504021240 41 248 0.0 0.0 0.00 0.02 0.02 49 1009.7
20260504020743 41 245 0.0 0.0 0.00 0.02 0.02 48 1009.7
20260504020316 41 249 0.0 0.0 0.00 0.02 0.02 49 1009.7
20260504015755 41 259 0.0 0.0 0.00 0.02 0.02 48 1009.7
20260504015308 40 259 0.0 0.0 0.00 0.02 0.02 50 1009.6
20260504014746 40 259 0.0 0.0 0.00 0.02 0.02 50 1009.6
20260504014244 40 259 0.0 0.0 0.00 0.02 0.02 50 1009.6
20260504013743 40 259 0.0 0.0 0.00 0.02 0.02 51 1009.5
20260504013258 40 257 0.0 0.0 0.00 0.02 0.02 51 1009.6
20260504012757 41 260 0.0 0.0 0.00 0.02 0.02 50 1009.4
20260504012312 41 260 0.0 0.0 0.00 0.02 0.02 49 1009.4
20260504011752 41 256 0.0 0.0 0.00 0.02 0.02 49 1009.4
20260504011244 41 256 0.0 0.0 0.00 0.02 0.02 49 1009.4
20260504010804 41 255 0.0 0.0 0.00 0.02 0.02 49 1009.2
20260504010300 42 251 0.0 0.0 0.00 0.02 0.02 48 1009.1
20260504005758 42 251 0.0 0.0 0.00 0.02 0.02 47 1009.1
20260504005256 42 251 0.0 0.0 0.00 0.02 0.02 46 1009.1
20260504004755 43 251 0.0 0.0 0.00 0.02 0.02 46 1008.9
20260504004251 43 251 0.0 0.0 0.00 0.02 0.02 45 1008.8
20260504003750 43 251 0.0 0.0 0.00 0.02 0.02 43 1008.7
20260504003247 44 251 0.0 0.0 0.00 0.02 0.02 41 1008.7
20260504003011 43 251 0.0 0.0 0.00 0.02 0.02 43 1009.0
20260504002807 44 251 0.0 0.0 0.00 0.02 0.02 43 1008.7
20260504002240 44 251 0.0 1.0 0.00 0.02 0.02 43 1008.7
20260504001801 45 251 0.0 1.0 0.00 0.02 0.02 41 1008.6
20260504001257 45 250 0.0 1.0 0.00 0.02 0.02 41 1008.5
20260504000756 46 248 0.0 1.0 0.00 0.02 0.02 39 1008.6
20260504000252 46 248 0.0 3.0 0.00 0.02 0.02 38 1008.5
20260503235751 47 248 0.0 3.0 0.00 0.04 0.02 39 1008.4
20260503235251 47 236 0.0 3.0 0.00 0.04 0.02 36 1008.4
20260503234751 47 268 1.0 3.0 0.00 0.04 0.02 37 1008.4
20260503234508 47 315 0.0 1.0 0.00 0.04 0.02 37 1008.6
20260503234308 47 260 0.0 1.0 0.00 0.04 0.02 37 1008.4
20260503233749 48 286 0.0 4.0 0.00 0.04 0.02 37 1008.2
20260503233244 48 284 1.0 4.0 0.00 0.04 0.02 35 1008.1
20260503232744 49 259 1.0 2.0 0.00 0.04 0.02 35 1008.1
20260503232244 49 356 0.0 3.0 0.00 0.04 0.02 34 1008.1
20260503231743 49 253 1.0 4.0 0.00 0.04 0.02 33 1008.2
20260503231240 49 325 1.0 4.0 0.00 0.04 0.02 32 1008.2
20260503230742 49 290 1.0 10.0 0.00 0.04 0.02 31 1008.0
20260503230241 49 292 3.0 10.0 0.00 0.04 0.02 31 1008.0
20260503225248 50 226 2.0 10.0 0.00 0.05 0.02 30 1007.9
20260503224749 50 57 2.0 9.0 0.00 0.05 0.02 32 1008.0
20260503224248 50 257 1.0 7.0 0.00 0.05 0.02 31 1007.9
20260503223748 50 252 3.0 7.0 0.00 0.05 0.02 30 1007.8
20260503223246 50 287 3.0 8.0 0.00 0.05 0.02 29 1007.7
20260503222747 50 245 3.0 12.0 0.00 0.05 0.02 30 1007.7
20260503222241 50 65 3.0 13.0 0.00 0.05 0.02 30 1007.7
20260503221746 51 290 3.0 16.0 0.00 0.05 0.02 30 1007.6
20260503221243 51 314 4.0 10.0 0.00 0.05 0.02 29 1007.5
20260503220743 52 277 3.0 16.0 0.00 0.05 0.02 27 1007.5
20260503220239 52 156 3.0 16.0 0.00 0.05 0.02 28 1007.4
20260503215740 52 273 4.0 21.0 0.00 0.09 0.02 27 1007.6
20260503215257 51 288 6.0 21.0 0.00 0.09 0.02 28 1007.3
20260503214755 51 349 5.0 14.0 0.00 0.09 0.02 28 1007.3
20260503214251 51 250 4.0 12.0 0.00 0.09 0.02 28 1007.1
20260503213751 51 278 4.0 10.0 0.00 0.09 0.02 27 1007.1
20260503213245 51 45 3.0 7.0 0.00 0.09 0.02 29 1007.2
20260503212744 50 23 1.0 18.0 0.00 0.09 0.02 30 1007.2
20260503212241 51 281 7.0 18.0 0.00 0.09 0.02 28 1007.0
20260503211742 51 20 5.0 16.0 0.00 0.09 0.02 27 1006.9
20260503211258 51 281 5.0 10.0 0.00 0.09 0.02 27 1006.9
20260503210818 51 221 4.0 16.0 0.00 0.09 0.02 29 1006.9
20260503210253 50 313 5.0 16.0 0.00 0.09 0.02 28 1006.8
20260503205754 50 359 6.0 14.0 0.00 0.09 0.02 28 1006.8
20260503205251 51 266 5.0 14.0 0.00 0.09 0.02 28 1006.7
20260503204751 51 47 4.0 13.0 0.00 0.09 0.02 29 1006.6
20260503204250 51 233 3.0 14.0 0.00 0.09 0.02 31 1006.5
20260503203805 51 248 3.0 14.0 0.00 0.09 0.02 32 1006.6
20260503203243 51 13 4.0 12.0 0.00 0.09 0.02 28 1006.5
20260503202743 51 14 4.0 12.0 0.00 0.09 0.02 29 1006.5
20260503202257 51 285 5.0 11.0 0.00 0.09 0.02 28 1006.5
20260503201756 51 235 4.0 10.0 0.00 0.09 0.02 28 1006.6
20260503201244 51 278 3.0 15.0 0.00 0.09 0.02 29 1006.5
20260503200804 51 257 4.0 15.0 0.00 0.09 0.02 29 1006.4
20260503200239 52 300 4.0 13.0 0.00 0.09 0.02 30 1006.4
20260503195816 52 307 5.0 13.0 0.00 0.09 0.02 28 1006.5
20260503195310 52 28 3.0 10.0 0.00 0.09 0.02 29 1006.5
20260503194746 51 291 3.0 10.0 0.00 0.09 0.02 28 1006.4
20260503194245 52 327 2.0 8.0 0.00 0.09 0.02 29 1006.4
20260503193745 52 304 2.0 16.0 0.00 0.09 0.02 30 1006.3
20260503193241 51 300 4.0 16.0 0.00 0.09 0.02 28 1006.5
20260503192742 51 277 4.0 9.0 0.00 0.09 0.02 29 1006.3
20260503192259 51 28 3.0 11.0 0.00 0.09 0.02 30 1006.4
20260503191738 52 272 4.0 11.0 0.00 0.09 0.02 28 1006.4
20260503191252 52 18 3.0 7.0 0.00 0.09 0.02 29 1006.4
20260503190750 52 276 1.0 6.0 0.00 0.09 0.02 31 1006.3
20260503190247 51 63 3.0 11.0 0.00 0.09 0.02 31 1006.4
20260503185748 51 352 3.0 11.0 0.00 0.14 0.02 30 1006.5
20260503185244 51 285 3.0 12.0 0.00 0.14 0.02 31 1006.5
20260503184743 51 281 3.0 12.0 0.00 0.14 0.02 33 1006.6
20260503184524 51 264 4.0 14.0 0.00 0.14 0.02 30 1006.8
20260503184319 51 96 3.0 14.0 0.00 0.14 0.02 33 1006.5
20260503183758 52 259 5.0 14.0 0.00 0.14 0.02 30 1006.4
20260503183255 52 311 4.0 13.0 0.00 0.14 0.02 32 1006.4
20260503182752 52 277 3.0 10.0 0.00 0.14 0.02 31 1006.4
20260503182247 52 257 3.0 10.0 0.00 0.14 0.02 33 1006.4
20260503181742 51 271 2.0 11.0 0.00 0.14 0.02 34 1006.4
20260503181258 51 266 3.0 11.0 0.00 0.14 0.02 34 1006.4
20260503180738 51 292 3.0 13.0 0.00 0.14 0.02 34 1006.4
20260503180253 51 131 1.0 13.0 0.00 0.14 0.02 35 1006.5
20260503175754 51 308 4.0 13.0 0.00 0.31 0.02 33 1006.5